Regional Weather Roundup
Issued by NWS Sterling, VA

Home | Current Version | Previous Version | Graphics & Text | Print | Product List | Glossary On
Versions: 1 2 3 4 5 6 7 8 9 10 11 12 13 14 15 16 17 18 19 20 21 22 23 24 25 26 27
000
ASUS41 KLWX 191011
RWRLWX

REGIONAL WEATHER ROUNDUP
NATIONAL WEATHER SERVICE BALTIMORE MD/WASHINGTON DC
600 AM EDT TUE SEP 19 2017

Note: "FAIR" indicates few or no clouds below 12,000 feet
with no significant weather and/or obstructions to visibility.
 TC=TEMPERATURE CELSIUS

 * =Non NWS site. Station does not report precipitation (e.g. rain,
    snow, etc.), thunder, or fog.

DCZ001-MDZ009-015-VAZ040>042-051-053>054-191100-
WASHINGTON METRO

CITY           SKY/WX    TMP DP  RH WIND       PRES   REMARKS
WASHINGTON NAT PTCLDY    69  66  90 N13       30.00S
DULLES         CLOUDY    67  65  93 N8        30.01F
ANDREWS AFB    MOCLDY    66  65  95 N9        29.98S
FT BELVOIR     CLEAR     67  64  89 NW6       29.98F
QUANTICO       CLEAR     68  66  93 MISG      29.99
COLLEGE PARK*  CLEAR     65  63  93 N6        29.99S
LEESBURG*      CLOUDY    66  66 100 N8        30.03F FOG
MANASSAS*      CLOUDY    68  65  90 N9        30.01F
GAITHERSBURG*  PTCLDY    64  63  96 CALM      30.03S

$$

MDZ006>007-011-014-191100-
BALTIMORE METRO

CITY           SKY/WX    TMP DP  RH WIND       PRES   REMARKS
BWI AIRPORT    MOCLDY    68  66  93 N6        29.99S
MD SCIENCE CTR   N/A     70  66  87 MISG      30.00S
MARTIN STATE   CLOUDY    70  70 100 MISG      30.00S
ANNAPOLIS      CLOUDY    73  70  90 N12       29.97S
FORT MEADE*    MOCLDY    64  63  94 N5        30.02S

$$

MDZ012-015-019>023-191100-
MARYLAND EASTERN SHORE

CITY           SKY/WX    TMP DP  RH WIND       PRES   REMARKS
OCEAN CITY     LGT RAIN  71  69  93 NE15G29   29.87S FOG
SALISBURY      MOCLDY    71  68  90 N14       29.89S
CAMBRIDGE*     CLOUDY    72  68  88 N9G15     29.93S
EASTON*        MOCLDY    72  66  83 N9        29.98S

$$

MDZ017>025-191100-
SOUTHERN MARYLAND

CITY           SKY/WX    TMP DP  RH WIND       PRES   REMARKS
PATUXENT RIVER CLOUDY    71  68  90 N14       29.94R
ST INIGOES     NOT AVBL
LEONARDTOWN*   CLOUDY    70  64  83 N6        29.96S

$$

MDZ003>005-191100-
NORTH CENTRAL MARYLAND

CITY           SKY/WX    TMP DP  RH WIND       PRES   REMARKS
FREDERICK*     CLOUDY    68  68 100 N6        30.06F FOG
HAGERSTOWN APT CLOUDY    67  63  87 NE6       30.05S
WESTMINSTER*   CLOUDY    66  64  94 N5        30.04S FOG

$$

MDZ501>502-191100-
WESTERN MARYLAND

CITY           SKY/WX    TMP DP  RH WIND       PRES   REMARKS
OAKLAND*       CLOUDY    57  57 100 SE9       30.08S VSB 1/4
CUMBERLAND*    CLOUDY    64  64 100 CALM      30.10R

$$

VAZ025>031-191100-
SHENANDOAH VALLEY

CITY           SKY/WX    TMP DP  RH WIND       PRES   REMARKS
WINCHESTER*    CLOUDY    63  63 100 CALM      30.05S FOG
FRONT ROYAL*   CLOUDY    64  64 100 CALM      30.04S
LURAY*         FOG       61  61 100 CALM      30.04F VSB 1/2
NEW MARKET*    CLOUDY    60  59  96 CALM      30.05S
STAUNTON*      CLOUDY    63  63  98 NE6       30.08R FOG
WAYNESBORO*    CLOUDY    63  63 100 CALM      30.07R

$$

WVZ021-048>050-054>055-191100-
EASTERN WEST VIRGINIA PANHANDLE

CITY           SKY/WX    TMP DP  RH WIND       PRES   REMARKS
MARTINSBURG    MOCLDY    65  62  90 N3        30.04S FOG
PETERSBURG*    CLOUDY    66  65  95 CALM      30.06R

$$

VAZ036>039-050-191100-
CENTRAL FOOTHILLS

CITY           SKY/WX    TMP DP  RH WIND       PRES   REMARKS
CHARLOTTESVILL MOCLDY    65  64  97 N3        30.02R
CULPEPER*      CLOUDY    67  66  96 N7        30.02F
ORANGE*        PTCLDY    64  63  94 CALM      30.01S
GORDONSVILLE*  MOCLDY    67  65  94 N6        30.01S
WARRENTON*     CLOUDY    69  64  84 N6        30.00F

$$

VAZ055>057-191100-
NORTH AND CENTRAL PIEDMONT

CITY           SKY/WX    TMP DP  RH WIND       PRES   REMARKS
FREDERICKSBRG* PTCLDY    68  68 100 N6        29.98R
STAFFORD*      PTCLDY    65  65 100 NW7       30.02F

$$

NCZ024-NYZ072-PAZ021-071-VAZ022-071-191100-
OTHER REGIONAL OBSERVATIONS

CITY           SKY/WX    TMP DP  RH WIND       PRES   REMARKS
NEW YORK CITY  CLOUDY    71  66  84 VRB5G17   30.05S
PHILADELPHIA   CLOUDY    71  67  87 NE14      29.99S
PITTSBURGH     MOCLDY    65  63  93 CALM      30.02F
ROANOKE        PTCLDY    62  61  96 CALM      30.05S
RICHMOND       MOCLDY    67  66  97 N10       29.95S
RALEIGH        MOCLDY    65  65 100 N5        29.98R

$$

ANZ530>537-191100-
MARINE OBSERVATIONS

STATION/POSITION TIME  TEMP    WIND        PRES
                       AIR SEA DIR/SP/G
                 (UTC) (F)     (DEG/KT/KT) (MB)
THOMAS PT LIGHT  1000   71 75  360/ 17/ 18   N/A
BALT KEY BRIDGE  0942   70     350/ 10/ 11 1015.4S
COVE POINT       0942   71      20/ 20/ 24 1014.5R
LEWISETTA        0942   72 76   20/ 12/ 18 1013.0F
SOLOMONS ISLAND  0942   72 76   10/ 12/ 20 1013.3R
PINEY POINT      0942           30/ 12/ 14   N/A

$$





USA.gov is the U.S. government's official web portal to all federal, state and local government web resources and services.